Bangkok (Don Mueang), Thailand

10:45 PM +07 on August 16, 2017 (GMT +0700)
Bangkok International

Weather History for VTBD - February, 2013

Change the Weather History Date:

Thursday, February 21, 2013

  Actual Average Record
Temperature  
Mean Temperature 87 °F -  
Max Temperature 94 °F 92 °F 96 °F (1997)
Min Temperature 80 °F 75 °F 70 °F (2014)
Cooling Degree Days 22    
Growing Degree Days 37 (Base 50)    
Moisture  
Dew Point 75 °F    
Average Humidity 70    
Maximum Humidity 89    
Minimum Humidity 46    
Precipitation  
Precipitation 0.00 in 0.03 in - ()
Sea Level Pressure  
Sea Level Pressure 29.82 in    
Wind  
Wind Speed 4 mph ()    
Max Wind Speed 10 mph    
Max Gust Speed -    
Visibility 4.7 miles    
Events      
Averages and records for this station are not official NWS values.
T = Trace of Precipitation, MM = Missing Value Source: Averaged Metar Reports

Daily Weather History Graph

Daily Weather History Graph

Search for Another Location

Airport or City:

Trip Planner

Search our weather history database for the weather conditions in past years. The results will help you decide how hot, cold, wet, or windy it might be!

Date:

Astronomy

Feb. 21, 2013 Rise Set
Actual Time 6:38 AM +07 6:24 PM +07
Civil Twilight 6:16 AM +07 6:45 PM +07
Nautical Twilight 5:51 AM +07 7:10 PM +07
Astronomical Twilight 5:26 AM +07 7:35 PM +07
Moon 2:36 PM +07 (2/21) 2:53 AM +07 (2/21)
Length of Visible Light 12h 29m
Length of Day
11h 45m
Waxing Gibbous, 80% of the Moon is Illuminated
Feb 21
Waxing Gibbous
Feb 26
Full
Mar 5
Last Quarter
Mar 12
New
Mar 20
First Quarter

Hourly Weather History & Observations

Time (+07) Temp. Heat Index Dew Point Humidity Pressure Visibility Wind Dir Wind Speed Gust Speed Precip Events Conditions
12:00 AM 82.4 °F 89.5 °F 75.2 °F 79% 29.80 in 6.2 mi SSW 5.8 mph - N/A   Scattered Clouds
12:30 AM 82.4 °F 89.5 °F 75.2 °F 79% 29.80 in 6.2 mi SSW 2.3 mph - N/A   Scattered Clouds
1:00 AM 83 °F - 75 °F 70% 29.81 in 6 mi SSW 4.6 mph - -   Scattered Clouds
1:00 AM 82.4 °F 89.5 °F 75.2 °F 79% 29.80 in 6.2 mi SSW 4.6 mph - N/A   Scattered Clouds
1:30 AM 82.4 °F 89.5 °F 75.2 °F 79% 29.80 in 6.2 mi SSW 4.6 mph - N/A   Scattered Clouds
2:00 AM 82.4 °F 89.5 °F 75.2 °F 79% 29.80 in 6.2 mi SSW 4.6 mph - N/A   Scattered Clouds
2:30 AM 80.6 °F 86.2 °F 75.2 °F 84% 29.77 in 6.2 mi SSW 4.6 mph - N/A   Scattered Clouds
3:00 AM 82.4 °F 89.5 °F 75.2 °F 79% 29.77 in 6.2 mi SSW 6.9 mph - N/A   Scattered Clouds
3:30 AM 82.4 °F 90.9 °F 77.0 °F 84% 29.77 in 5.6 mi SSW 6.9 mph - N/A   Mostly Cloudy
4:00 AM 82.4 °F 90.9 °F 77.0 °F 84% 29.77 in 5.6 mi SSE 3.5 mph - N/A   Mostly Cloudy
4:30 AM 82.4 °F 90.9 °F 77.0 °F 84% 29.77 in 5.6 mi South 3.5 mph - N/A   Mostly Cloudy
5:00 AM 82.4 °F 90.9 °F 77.0 °F 84% 29.77 in 5.6 mi ENE 3.5 mph - N/A   Mostly Cloudy
5:30 AM 82.4 °F 90.9 °F 77.0 °F 84% 29.77 in 5.6 mi SSE 2.3 mph - N/A   Mostly Cloudy
6:00 AM 82.4 °F 90.9 °F 77.0 °F 84% 29.80 in 5.0 mi ESE 3.5 mph - N/A   Mostly Cloudy
6:30 AM 80.6 °F 87.1 °F 77.0 °F 89% 29.80 in 4.3 mi East 5.8 mph - N/A   Mostly Cloudy
7:00 AM 81 °F - 77 °F 85% 29.82 in 3 mi East 3.5 mph - -   Mist
7:00 AM 80.6 °F 87.1 °F 77.0 °F 89% 29.80 in 3.1 mi East 3.5 mph - N/A   Mostly Cloudy
7:30 AM 80.6 °F 87.1 °F 77.0 °F 89% 29.83 in 3.1 mi East 3.5 mph - N/A   Mostly Cloudy
8:00 AM 80.6 °F 87.1 °F 77.0 °F 89% 29.86 in 3.1 mi East 4.6 mph - N/A   Mostly Cloudy
8:30 AM 82.4 °F 90.9 °F 77.0 °F 84% 29.86 in 3.1 mi East 4.6 mph - N/A   Mostly Cloudy
9:00 AM 82.4 °F 89.5 °F 75.2 °F 79% 29.86 in 3.7 mi East 3.5 mph - N/A   Mostly Cloudy
9:30 AM 84.2 °F 94.1 °F 77.0 °F 79% 29.89 in 4.3 mi East 5.8 mph - N/A   Mostly Cloudy
10:00 AM 86.0 °F 96.9 °F 77.0 °F 74% 29.89 in 4.3 mi East 3.5 mph - N/A   Mostly Cloudy
10:30 AM 87.8 °F 99.7 °F 77.0 °F 70% 29.89 in 5.0 mi East 5.8 mph - N/A   Mostly Cloudy
11:00 AM 87.8 °F 99.7 °F 77.0 °F 70% 29.89 in 5.0 mi ESE 5.8 mph - N/A   Mostly Cloudy
11:30 AM 87.8 °F 99.7 °F 77.0 °F 70% 29.89 in 5.0 mi ENE 4.6 mph - N/A   Mostly Cloudy
12:00 PM 89.6 °F 99.8 °F 75.2 °F 62% 29.86 in 5.0 mi SE 6.9 mph - N/A   Mostly Cloudy
12:30 PM 89.6 °F 98.2 °F 73.4 °F 59% 29.83 in 5.0 mi ESE 8.1 mph - N/A   Mostly Cloudy
1:00 PM 91 °F - 73 °F 47% 29.83 in 5 mi SSE 5.8 mph - -   Haze
1:00 PM - - 73.4 °F N/A% 29.83 in 5.0 mi SSE 5.8 mph - N/A   Mostly Cloudy
1:30 PM 91.4 °F 100.1 °F 73.4 °F 55% 29.80 in 5.0 mi East 10.4 mph - N/A   Mostly Cloudy
2:00 PM 91.4 °F 100.1 °F 73.4 °F 55% 29.80 in 5.0 mi ESE 4.6 mph - N/A   Mostly Cloudy
2:30 PM 91.4 °F 100.1 °F 73.4 °F 55% 29.80 in 5.0 mi ESE 3.5 mph - N/A   Mostly Cloudy
3:00 PM 93.2 °F 102.4 °F 73.4 °F 52% 29.77 in 5.0 mi East 5.8 mph - N/A   Mostly Cloudy
3:30 PM 93.2 °F 102.4 °F 73.4 °F 52% 29.77 in 5.0 mi East 8.1 mph - N/A   Mostly Cloudy
4:00 PM 95.0 °F 104.5 °F 73.4 °F 49% 29.77 in 5.0 mi East 5.8 mph - N/A   Mostly Cloudy
4:30 PM 95.0 °F 104.5 °F 73.4 °F 49% 29.77 in 5.0 mi NE 3.5 mph - N/A   Mostly Cloudy
5:00 PM 93.2 °F 98.8 °F 69.8 °F 46% 29.77 in 5.0 mi ESE 3.5 mph - N/A   Mostly Cloudy
5:30 PM 91.4 °F 98.4 °F 71.6 °F 52% 29.77 in 5.0 mi SSE 3.5 mph - N/A   Mostly Cloudy
6:00 PM 91.4 °F 96.8 °F 69.8 °F 49% 29.77 in 4.3 mi SE 3.5 mph - N/A   Mostly Cloudy
6:30 PM 89.6 °F 96.2 °F 71.6 °F 55% 29.80 in 3.7 mi WSW 2.3 mph - N/A   Mostly Cloudy
7:00 PM 89 °F - 74 °F 53% 29.80 in 4 mi West 8.1 mph - -   Haze
7:00 PM 87.8 °F 95.6 °F 73.4 °F 62% 29.80 in 4.3 mi West 8.1 mph - N/A   Mostly Cloudy
7:30 PM 86.0 °F 93.4 °F 73.4 °F 66% 29.80 in 4.3 mi West 4.6 mph - N/A   Mostly Cloudy
8:00 PM 86.0 °F 93.4 °F 73.4 °F 66% 29.83 in 4.3 mi NNW 3.5 mph - N/A   Mostly Cloudy
8:30 PM 86.0 °F 95.1 °F 75.2 °F 70% 29.83 in 4.3 mi WNW 6.9 mph - N/A   Mostly Cloudy
9:00 PM 86.0 °F 95.1 °F 75.2 °F 70% 29.86 in 3.7 mi SW 5.8 mph - N/A   Mostly Cloudy
9:30 PM 86.0 °F 95.1 °F 75.2 °F 70% 29.86 in 3.7 mi SW 3.5 mph - N/A   Mostly Cloudy
10:00 PM 86.0 °F 95.1 °F 75.2 °F 70% 29.86 in 3.7 mi SW 2.3 mph - N/A   Mostly Cloudy
10:30 PM 86.0 °F 95.1 °F 75.2 °F 70% 29.86 in 3.7 mi West 2.3 mph - N/A   Scattered Clouds
11:00 PM 86.0 °F 95.1 °F 75.2 °F 70% 29.86 in 3.7 mi WSW 3.5 mph - N/A   Scattered Clouds
11:30 PM 84.2 °F 92.3 °F 75.2 °F 74% 29.89 in 3.7 mi SSW 3.5 mph - N/A   Scattered Clouds